Погода в Мидленде

Канада     44°45′16″N   79°54′01″W
темп.,
°C
ветер,
м/с
пор.,
м/с
влажн.,
%
обл.,
%
осадки,
мм/ч
давл.,
гПа
погр.,
м
6 мая, чт
чт623:00+5ссз498787 0.1 1018279
02:00+3с358920 0.1 101885
05:00+2сз1289100 0.0 101915
08:00+4зсз238053 0.0 1020189
11:00+5зсз46816 0.0 1020563
14:00+6зсз56725 0.1 1019586
17:00+7зсз355988 0.0 1017460
20:00+5зсз3367100 0.0 101658
7 мая, пт
пт723:00+4сз3374100 0.0 101636
02:00+3сз227881 0.0 101517
05:00+3ссв1179100 0.0 101410
08:00+4с2276100 0.0 1014136
11:00+6ссз1271100 0.0 1013512
14:00+6зсз437097 0.1 1012581
17:00+7сз437098 0.0 1012514
20:00+5сз337622 0.0 101251
8 мая, сб
сб823:00+4ссз346754 0.0 101262
02:00+3зсз33805 0.0 101242
05:00+3зсз34873 0.0 101266
08:00+4сз34760 0.0 1014163
11:00+6зсз67800 0.0 1015319
14:00+7зсз69720 0.0 1015409
17:00+7зсз610670 0.0 1015463
20:00+5зсз510745 0.0 1016215
9 мая, вс
вс923:00+4зюз610794 0.0 1017187
02:00+3з510780 0.0 1017183
05:00+3з610760 0.0 1017259
08:00+4з57731 0.0 1016276
11:00+6зсз45634 0.0 1016393
14:00+8ссз335842 0.0 1013631
17:00+8ссз4462100 0.0 1012318
20:00+6с2367100 0.0 101158
10 мая, пн
пн1023:00+5с3361100 0.0 101035
02:00+5ссз2260100 0.0 100833
05:00+4сз3470100 0.1 1007102
08:00+5с5788100 0.1 1010278
11:00+6сз787940 0.0 1012538
14:00+6зсз811720 0.0 1013576
17:00+6зсз812715 0.0 1014634
20:00+5сз814755 0.0 1015547